FORMOSAT-5 (42920 NORAD) Tracking and Keplerian Element Data

This shows tracking and keplerian element data for the satellite.

Feedback or suggestion? Click here.




ElementValue
Catalog42920
NameFORMOSAT-5
Epoch Orbit4703
Epoch Day196.12444304
Epoch Year2018
RAAN272.2092
Inclination98.3597
Eccentricity0.0009898
Argument of Perigee331.077
Mean Anonmoly28.9881
Mean Motion14.50802973
Decay Rate-5.4E-07
L11 42920U 17049A 18196.12444304 -.00000054 00000-0 -21964-5 0 9993
L22 42920 98.3597 272.2092 0009898 331.0770 28.9881 14.50802973 47038

Live tracking and technical data element details for FORMOSAT-5 (NORAD 42920). FORMOSAT-5 can be tracked NOW for your location showing map with azimuth and elevation plus other details from your city location.

Track the satellite on the map from your city or location and see movement details for azimuth, elevation, latitude, longitude, range, height, and movement on the map or in text.







IsCatalogInMostPopularTable: catalog: 42920, numindb: 105
Update: records affected: 1



GetName: 42920 FORMOSAT-5

Hit Count: updated at: Sun, 15 Jul 2018 23:17:19 GMT